Location: Poughquag
(41.6090°N, 73.6820°W)
Time: 01:58:26
(UTC-04:00)

Transit 2A - Pass Details

Date: 01 June 2020
Orbit: 592 x 967 km, 66.7° (Epoch: 06 July)

Event Time Altitude Azimuth Distance (km) Brightness Sun altitude
Rises 14:05:33 0° 219° (SW) 3,006 9.4 65.3°
Reaches altitude 10° 14:07:46 10° 224° (SW) 2,145 8.9 65.0°
Maximum altitude 14:12:36 60° 304° (NW) 857 7.4 64.4°
Drops below altitude 10° 14:18:02 10° 24° (NNE) 2,406 8.5 63.6°
Sets 14:20:40 0° 28° (NNE) 3,405 9.1 63.2°
